Time,TemperatureF,DewpointF,PressureIn,WindDirection,WindDirectionDegrees,WindSpeedMPH,WindSpeedGustMPH,Humidity,HourlyPrecipIn,Conditions,Clouds,dailyrainin,SoftwareType,DateUTC
2013-04-14 00:00:00,47.1,38.4,29.86,North,0,0.0,0.0,71,0.00,,,0.00,WUHU21623XXSP,2013-04-14 05:00:00,
2013-04-14 00:05:00,47.1,38.2,29.85,North,0,0.0,0.0,71,0.00,,,0.00,WUHU21623XXSP,2013-04-14 05:05:00,
2013-04-14 00:10:00,47.1,38.2,29.85,North,0,0.0,0.0,71,0.00,,,0.00,WUHU21623XXSP,2013-04-14 05:10:00,
2013-04-14 00:15:00,47.1,38.6,29.86,North,0,0.0,0.0,72,0.00,,,0.00,WUHU21623XXSP,2013-04-14 05:15:00,
2013-04-14 00:20:00,47.1,38.2,29.85,North,0,0.0,0.0,71,0.00,,,0.00,WUHU21623XXSP,2013-04-14 05:20:00,
2013-04-14 00:25:00,46.9,38.0,29.85,North,0,0.0,0.0,71,0.00,,,0.00,WUHU21623XXSP,2013-04-14 05:25:00,
2013-04-14 00:30:00,46.8,38.0,29.85,North,0,0.0,0.0,71,0.00,,,0.00,WUHU21623XXSP,2013-04-14 05:30:00,
2013-04-14 00:35:00,46.6,37.7,29.85,North,0,0.0,0.0,72,0.00,,,0.00,WUHU21623XXSP,2013-04-14 05:35:00,
2013-04-14 00:40:00,46.2,37.4,29.85,North,0,0.0,0.0,71,0.00,,,0.00,WUHU21623XXSP,2013-04-14 05:40:00,
2013-04-14 00:45:00,46.2,37.7,29.85,North,0,0.0,0.0,72,0.00,,,0.00,WUHU21623XXSP,2013-04-14 05:45:00,
2013-04-14 00:50:00,46.2,37.7,29.85,North,0,0.0,0.0,72,0.00,,,0.00,WUHU21623XXSP,2013-04-14 05:50:00,
2013-04-14 00:55:00,46.0,37.5,29.85,North,0,0.0,0.0,72,0.00,,,0.00,WUHU21623XXSP,2013-04-14 05:55:00,
2013-04-14 01:00:00,46.0,37.5,29.85,North,0,0.0,0.0,72,0.00,,,0.00,WUHU21623XXSP,2013-04-14 06:00:00,
2013-04-14 01:05:00,46.0,37.9,29.85,North,0,0.0,0.0,73,0.00,,,0.00,WUHU21623XXSP,2013-04-14 06:05:00,
2013-04-14 01:10:00,46.0,37.9,29.85,North,0,0.0,0.0,73,0.00,,,0.00,WUHU21623XXSP,2013-04-14 06:10:00,
2013-04-14 01:15:00,46.0,38.2,29.84,North,0,0.0,0.0,74,0.00,,,0.00,WUHU21623XXSP,2013-04-14 06:15:00,
2013-04-14 01:20:00,45.9,38.0,29.84,North,0,0.0,0.0,74,0.00,,,0.00,WUHU21623XXSP,2013-04-14 06:20:00,
2013-04-14 01:25:00,45.7,37.9,29.84,North,0,0.0,0.0,74,0.00,,,0.00,WUHU21623XXSP,2013-04-14 06:25:00,
2013-04-14 01:30:00,45.7,37.9,29.84,North,0,0.0,0.0,74,0.00,,,0.00,WUHU21623XXSP,2013-04-14 06:30:00,
2013-04-14 01:35:00,45.7,37.9,29.84,North,0,0.0,0.0,74,0.00,,,0.00,WUHU21623XXSP,2013-04-14 06:35:00,
2013-04-14 01:40:00,45.5,37.7,29.84,North,0,0.0,0.0,74,0.00,,,0.00,WUHU21623XXSP,2013-04-14 06:40:00,
2013-04-14 01:45:00,45.5,37.7,29.83,North,0,0.0,0.0,74,0.00,,,0.00,WUHU21623XXSP,2013-04-14 06:45:00,
2013-04-14 01:50:00,45.3,37.5,29.83,North,0,0.0,0.0,74,0.00,,,0.00,WUHU21623XXSP,2013-04-14 06:50:00,
2013-04-14 01:55:00,45.1,37.7,29.82,North,0,0.0,0.0,75,0.00,,,0.00,WUHU21623XXSP,2013-04-14 06:55:00,
2013-04-14 02:00:00,45.1,37.7,29.82,North,0,0.0,0.0,75,0.00,,,0.00,WUHU21623XXSP,2013-04-14 07:00:00,
2013-04-14 02:05:00,45.0,37.5,29.82,North,0,0.0,0.0,75,0.00,,,0.00,WUHU21623XXSP,2013-04-14 07:05:00,
2013-04-14 02:10:00,45.0,37.5,29.82,North,0,0.0,0.0,75,0.00,,,0.00,WUHU21623XXSP,2013-04-14 07:10:00,
2013-04-14 02:15:00,45.0,37.5,29.81,North,0,0.0,0.0,75,0.00,,,0.00,WUHU21623XXSP,2013-04-14 07:15:00,
2013-04-14 02:20:00,45.0,37.8,29.81,North,0,0.0,0.0,76,0.00,,,0.00,WUHU21623XXSP,2013-04-14 07:20:00,
2013-04-14 02:25:00,45.0,37.8,29.81,North,0,0.0,0.0,76,0.00,,,0.00,WUHU21623XXSP,2013-04-14 07:25:00,
2013-04-14 02:30:00,45.0,37.8,29.81,North,0,0.0,0.0,76,0.00,,,0.00,WUHU21623XXSP,2013-04-14 07:30:00,
2013-04-14 02:35:00,45.1,38.4,29.81,North,0,0.0,0.0,77,0.00,,,0.00,WUHU21623XXSP,2013-04-14 07:35:00,
2013-04-14 02:40:00,45.3,38.5,29.80,North,0,0.0,0.0,77,0.00,,,0.00,WUHU21623XXSP,2013-04-14 07:40:00,
2013-04-14 02:45:00,45.3,38.5,29.80,North,0,0.0,0.0,77,0.00,,,0.00,WUHU21623XXSP,2013-04-14 07:45:00,
2013-04-14 02:51:00,45.3,38.5,29.80,North,0,0.0,0.0,77,0.00,,,0.00,WUHU21623XXSP,2013-04-14 07:51:00,
2013-04-14 02:56:00,45.5,38.7,29.80,North,0,0.0,0.0,77,0.00,,,0.00,WUHU21623XXSP,2013-04-14 07:56:00,
2013-04-14 03:01:00,45.5,38.7,29.80,North,0,0.0,0.0,77,0.00,,,0.00,WUHU21623XXSP,2013-04-14 08:01:00,
2013-04-14 03:06:00,45.3,38.5,29.79,North,0,0.0,0.0,77,0.00,,,0.00,WUHU21623XXSP,2013-04-14 08:06:00,
2013-04-14 03:11:00,45.3,38.5,29.79,North,0,0.0,0.0,77,0.00,,,0.00,WUHU21623XXSP,2013-04-14 08:11:00,
2013-04-14 03:17:00,45.3,38.5,29.79,North,0,0.0,0.0,77,0.00,,,0.00,WUHU21623XXSP,2013-04-14 08:17:00,
2013-04-14 03:22:00,45.3,38.5,29.79,North,0,0.0,0.0,77,0.00,,,0.00,WUHU21623XXSP,2013-04-14 08:22:00,
2013-04-14 03:27:00,45.3,38.5,29.79,North,0,0.0,0.0,77,0.00,,,0.00,WUHU21623XXSP,2013-04-14 08:27:00,
2013-04-14 03:32:00,45.5,38.7,29.79,North,0,0.0,0.0,77,0.00,,,0.00,WUHU21623XXSP,2013-04-14 08:32:00,
2013-04-14 03:37:00,45.5,39.1,29.79,North,0,0.0,0.0,78,0.00,,,0.00,WUHU21623XXSP,2013-04-14 08:37:00,
2013-04-14 03:42:00,45.7,39.2,29.78,North,0,0.0,0.0,78,0.00,,,0.00,WUHU21623XXSP,2013-04-14 08:42:00,
2013-04-14 03:47:00,46.0,39.6,29.78,North,0,0.0,0.0,78,0.00,,,0.00,WUHU21623XXSP,2013-04-14 08:47:00,
2013-04-14 03:52:00,46.2,39.8,29.78,North,0,0.0,0.0,78,0.00,,,0.00,WUHU21623XXSP,2013-04-14 08:52:00,
2013-04-14 03:57:00,46.6,40.1,29.78,North,0,0.0,0.0,78,0.00,,,0.00,WUHU21623XXSP,2013-04-14 08:57:00,
2013-04-14 04:02:00,46.8,40.3,29.78,North,0,0.0,0.0,78,0.00,,,0.00,WUHU21623XXSP,2013-04-14 09:02:00,
2013-04-14 04:07:00,46.9,40.4,29.77,North,0,0.0,0.0,78,0.00,,,0.00,WUHU21623XXSP,2013-04-14 09:07:00,
2013-04-14 04:12:00,47.3,40.8,29.77,North,0,0.0,0.0,78,0.00,,,0.00,WUHU21623XXSP,2013-04-14 09:12:00,
2013-04-14 04:17:00,47.5,40.9,29.77,North,0,0.0,0.0,78,0.00,,,0.00,WUHU21623XXSP,2013-04-14 09:17:00,
2013-04-14 04:22:00,47.7,41.1,29.76,North,0,0.0,0.0,78,0.00,,,0.00,WUHU21623XXSP,2013-04-14 09:22:00,
2013-04-14 04:27:00,47.8,40.9,29.76,North,0,0.0,0.0,77,0.00,,,0.00,WUHU21623XXSP,2013-04-14 09:27:00,
2013-04-14 04:32:00,48.0,41.1,29.76,North,0,0.0,0.0,77,0.00,,,0.00,WUHU21623XXSP,2013-04-14 09:32:00,
2013-04-14 04:37:00,48.0,41.1,29.76,North,0,0.0,0.0,77,0.00,,,0.00,WUHU21623XXSP,2013-04-14 09:37:00,
2013-04-14 04:42:00,48.2,41.2,29.76,North,0,0.0,0.0,77,0.00,,,0.00,WUHU21623XXSP,2013-04-14 09:42:00,
2013-04-14 04:47:00,48.4,41.2,29.75,North,0,0.0,0.0,77,0.00,,,0.00,WUHU21623XXSP,2013-04-14 09:47:00,
2013-04-14 04:52:00,48.4,41.4,29.75,North,0,0.0,0.0,77,0.00,,,0.00,WUHU21623XXSP,2013-04-14 09:52:00,
2013-04-14 04:57:00,48.4,41.4,29.75,North,0,0.0,0.0,77,0.00,,,0.00,WUHU21623XXSP,2013-04-14 09:57:00,
2013-04-14 05:02:00,48.4,41.4,29.75,North,0,0.0,0.0,77,0.00,,,0.00,WUHU21623XXSP,2013-04-14 10:02:00,
2013-04-14 05:07:00,48.4,41.4,29.75,North,0,0.0,0.0,77,0.00,,,0.00,WUHU21623XXSP,2013-04-14 10:07:00,
2013-04-14 05:12:00,48.4,41.4,29.75,North,0,0.0,0.0,77,0.00,,,0.00,WUHU21623XXSP,2013-04-14 10:12:00,
2013-04-14 05:17:00,48.4,41.4,29.74,North,0,0.0,0.0,77,0.00,,,0.00,WUHU21623XXSP,2013-04-14 10:17:00,
2013-04-14 05:22:00,48.4,41.8,29.74,North,0,0.0,0.0,78,0.00,,,0.00,WUHU21623XXSP,2013-04-14 10:22:00,
2013-04-14 05:27:00,48.4,41.8,29.74,North,0,0.0,0.0,78,0.00,,,0.00,WUHU21623XXSP,2013-04-14 10:27:00,
2013-04-14 05:32:00,48.4,41.8,29.74,North,0,0.0,0.0,78,0.00,,,0.00,WUHU21623XXSP,2013-04-14 10:32:00,
2013-04-14 05:37:00,48.4,41.8,29.74,North,0,0.0,0.0,78,0.00,,,0.00,WUHU21623XXSP,2013-04-14 10:37:00,
2013-04-14 05:42:00,48.4,41.8,29.73,North,0,0.0,0.0,78,0.00,,,0.00,WUHU21623XXSP,2013-04-14 10:42:00,
2013-04-14 05:47:00,48.4,41.8,29.74,North,0,0.0,0.0,78,0.00,,,0.00,WUHU21623XXSP,2013-04-14 10:47:00,
2013-04-14 05:52:00,48.4,41.8,29.73,North,0,0.0,0.0,78,0.00,,,0.00,WUHU21623XXSP,2013-04-14 10:52:00,
2013-04-14 05:57:00,48.4,41.8,29.73,North,0,0.0,0.0,78,0.00,,,0.00,WUHU21623XXSP,2013-04-14 10:57:00,
2013-04-14 06:02:00,48.4,42.1,29.72,North,0,0.0,0.0,79,0.00,,,0.00,WUHU21623XXSP,2013-04-14 11:02:00,
2013-04-14 06:07:00,48.4,42.1,29.73,North,0,0.0,0.0,79,0.00,,,0.00,WUHU21623XXSP,2013-04-14 11:07:00,
2013-04-14 06:12:00,48.2,41.9,29.73,North,0,0.0,0.0,79,0.00,,,0.00,WUHU21623XXSP,2013-04-14 11:12:00,
2013-04-14 06:17:00,48.2,41.9,29.73,North,0,0.0,0.0,79,0.00,,,0.00,WUHU21623XXSP,2013-04-14 11:17:00,
2013-04-14 06:22:00,48.2,41.9,29.73,North,0,0.0,0.0,79,0.00,,,0.00,WUHU21623XXSP,2013-04-14 11:22:00,
2013-04-14 06:27:00,48.2,41.9,29.73,North,0,0.0,0.0,79,0.00,,,0.00,WUHU21623XXSP,2013-04-14 11:27:00,
2013-04-14 06:32:00,48.2,41.9,29.73,North,0,0.0,0.0,79,0.00,,,0.00,WUHU21623XXSP,2013-04-14 11:32:00,
2013-04-14 06:37:00,48.2,41.9,29.72,North,0,0.0,0.0,79,0.00,,,0.00,WUHU21623XXSP,2013-04-14 11:37:00,
2013-04-14 06:42:00,48.4,42.1,29.73,North,0,0.0,0.0,79,0.00,,,0.00,WUHU21623XXSP,2013-04-14 11:42:00,
2013-04-14 06:47:00,48.6,42.3,29.73,North,0,0.0,0.0,79,0.00,,,0.00,WUHU21623XXSP,2013-04-14 11:47:00,
2013-04-14 06:52:00,48.6,42.3,29.74,North,0,0.0,0.0,79,0.00,,,0.00,WUHU21623XXSP,2013-04-14 11:52:00,
2013-04-14 06:57:00,48.9,42.5,29.74,North,0,0.0,0.0,79,0.00,,,0.00,WUHU21623XXSP,2013-04-14 11:57:00,
2013-04-14 07:02:00,49.3,43.2,29.75,North,0,0.0,0.0,80,0.00,,,0.00,WUHU21623XXSP,2013-04-14 12:02:00,
2013-04-14 07:07:00,49.6,43.7,29.75,North,0,0.0,0.0,80,0.00,,,0.00,WUHU21623XXSP,2013-04-14 12:07:00,
2013-04-14 07:12:00,50.4,44.1,29.75,North,0,0.0,0.0,79,0.00,,,0.00,WUHU21623XXSP,2013-04-14 12:12:00,
2013-04-14 07:17:00,51.1,44.4,29.75,North,0,0.0,0.0,79,0.00,,,0.00,WUHU21623XXSP,2013-04-14 12:17:00,
2013-04-14 07:22:00,52.0,45.7,29.76,North,0,0.0,0.0,79,0.00,,,0.00,WUHU21623XXSP,2013-04-14 12:22:00,
2013-04-14 07:27:00,53.4,46.4,29.76,North,0,0.0,0.0,77,0.00,,,0.00,WUHU21623XXSP,2013-04-14 12:27:00,
2013-04-14 07:32:00,54.3,46.5,29.76,North,0,0.0,0.0,75,0.00,,,0.00,WUHU21623XXSP,2013-04-14 12:32:00,
2013-04-14 07:37:00,54.7,46.2,29.76,North,0,0.0,0.0,73,0.00,,,0.00,WUHU21623XXSP,2013-04-14 12:37:00,
2013-04-14 07:42:00,55.4,46.2,29.76,North,0,0.0,0.0,72,0.00,,,0.00,WUHU21623XXSP,2013-04-14 12:42:00,
2013-04-14 07:47:00,55.4,46.5,29.76,North,0,0.0,0.0,72,0.00,,,0.00,WUHU21623XXSP,2013-04-14 12:47:00,
2013-04-14 07:52:00,55.9,45.9,29.76,North,0,0.0,0.0,69,0.00,,,0.00,WUHU21623XXSP,2013-04-14 12:52:00,
2013-04-14 07:57:00,55.6,45.8,29.76,North,0,0.0,0.0,68,0.00,,,0.00,WUHU21623XXSP,2013-04-14 12:57:00,
2013-04-14 08:02:00,55.6,45.6,29.76,North,0,0.0,0.0,69,0.00,,,0.00,WUHU21623XXSP,2013-04-14 13:02:00,
2013-04-14 08:07:00,55.8,45.6,29.76,North,0,0.0,0.0,69,0.00,,,0.00,WUHU21623XXSP,2013-04-14 13:07:00,
2013-04-14 08:12:00,55.9,45.9,29.76,North,0,0.0,0.0,69,0.00,,,0.00,WUHU21623XXSP,2013-04-14 13:12:00,
2013-04-14 08:17:00,56.3,46.1,29.76,North,0,0.0,0.0,69,0.00,,,0.00,WUHU21623XXSP,2013-04-14 13:17:00,
2013-04-14 08:22:00,57.0,46.5,29.76,North,0,0.0,0.0,68,0.00,,,0.00,WUHU21623XXSP,2013-04-14 13:22:00,
2013-04-14 08:27:00,57.6,47.0,29.75,North,0,0.0,0.0,68,0.00,,,0.00,WUHU21623XXSP,2013-04-14 13:27:00,
2013-04-14 08:32:00,58.1,47.6,29.75,North,0,0.0,0.0,68,0.00,,,0.00,WUHU21623XXSP,2013-04-14 13:32:00,
2013-04-14 08:38:00,58.8,47.4,29.75,North,0,0.0,0.0,66,0.00,,,0.00,WUHU21623XXSP,2013-04-14 13:38:00,
2013-04-14 08:43:00,59.5,47.8,29.75,North,0,0.0,0.0,65,0.00,,,0.00,WUHU21623XXSP,2013-04-14 13:43:00,
2013-04-14 08:48:00,60.3,48.5,29.75,North,0,0.0,0.0,65,0.00,,,0.00,WUHU21623XXSP,2013-04-14 13:48:00,
2013-04-14 08:53:00,61.2,48.8,29.74,North,0,0.0,0.0,64,0.00,,,0.00,WUHU21623XXSP,2013-04-14 13:53:00,
2013-04-14 08:58:00,61.9,49.2,29.75,North,0,0.0,0.0,63,0.00,,,0.00,WUHU21623XXSP,2013-04-14 13:58:00,
2013-04-14 09:03:00,62.2,48.9,29.74,North,0,0.0,0.0,62,0.00,,,0.00,WUHU21623XXSP,2013-04-14 14:03:00,
2013-04-14 09:08:00,63.1,49.1,29.74,North,0,0.0,0.0,61,0.00,,,0.00,WUHU21623XXSP,2013-04-14 14:08:00,
2013-04-14 09:13:00,63.7,49.6,29.74,North,0,0.0,0.0,61,0.00,,,0.00,WUHU21623XXSP,2013-04-14 14:13:00,
2013-04-14 09:18:00,64.2,49.7,29.74,North,0,0.0,0.0,60,0.00,,,0.00,WUHU21623XXSP,2013-04-14 14:18:00,
2013-04-14 09:23:00,64.9,50.2,29.74,North,0,0.0,0.0,59,0.00,,,0.00,WUHU21623XXSP,2013-04-14 14:23:00,
2013-04-14 09:28:00,65.1,49.9,29.74,North,0,0.0,0.0,58,0.00,,,0.00,WUHU21623XXSP,2013-04-14 14:28:00,
2013-04-14 09:33:00,65.5,50.3,29.74,North,0,0.0,0.0,58,0.00,,,0.00,WUHU21623XXSP,2013-04-14 14:33:00,
2013-04-14 09:38:00,66.0,50.3,29.73,North,0,0.0,0.0,57,0.00,,,0.00,WUHU21623XXSP,2013-04-14 14:38:00,
2013-04-14 09:43:00,66.7,51.0,29.73,North,0,0.0,0.0,57,0.00,,,0.00,WUHU21623XXSP,2013-04-14 14:43:00,
2013-04-14 09:48:00,67.3,51.0,29.73,North,0,0.0,0.0,56,0.00,,,0.00,WUHU21623XXSP,2013-04-14 14:48:00,
2013-04-14 09:53:00,68.2,51.3,29.72,North,0,0.0,0.0,55,0.00,,,0.00,WUHU21623XXSP,2013-04-14 14:53:00,
2013-04-14 09:58:00,68.7,51.4,29.72,North,0,0.0,0.0,54,0.00,,,0.00,WUHU21623XXSP,2013-04-14 14:58:00,
2013-04-14 10:03:00,69.1,51.7,29.72,North,0,0.0,0.0,54,0.00,,,0.00,WUHU21623XXSP,2013-04-14 15:03:00,
2013-04-14 10:08:00,69.1,50.7,29.72,North,0,0.0,0.0,52,0.00,,,0.00,WUHU21623XXSP,2013-04-14 15:08:00,
2013-04-14 10:13:00,68.7,50.9,29.72,North,0,0.0,0.0,53,0.00,,,0.00,WUHU21623XXSP,2013-04-14 15:13:00,
2013-04-14 10:18:00,69.1,51.2,29.72,North,0,0.0,0.0,53,0.00,,,0.00,WUHU21623XXSP,2013-04-14 15:18:00,
2013-04-14 10:23:00,70.0,52.0,29.72,North,0,0.0,0.0,53,0.00,,,0.00,WUHU21623XXSP,2013-04-14 15:23:00,
2013-04-14 10:28:00,70.7,52.2,29.71,North,0,0.0,0.0,52,0.00,,,0.00,WUHU21623XXSP,2013-04-14 15:28:00,
2013-04-14 10:33:00,71.2,52.2,29.71,North,0,0.0,0.0,51,0.00,,,0.00,WUHU21623XXSP,2013-04-14 15:33:00,
2013-04-14 10:38:00,71.8,52.1,29.71,North,0,0.0,0.0,50,0.00,,,0.00,WUHU21623XXSP,2013-04-14 15:38:00,
2013-04-14 10:43:00,72.0,52.3,29.71,North,0,0.0,0.0,50,0.00,,,0.00,WUHU21623XXSP,2013-04-14 15:43:00,
2013-04-14 10:48:00,72.1,51.9,29.70,North,0,0.0,0.0,49,0.00,,,0.00,WUHU21623XXSP,2013-04-14 15:48:00,
2013-04-14 10:53:00,72.5,52.2,29.70,North,0,0.0,0.0,49,0.00,,,0.00,WUHU21623XXSP,2013-04-14 15:53:00,
2013-04-14 10:58:00,72.9,52.5,29.70,North,0,0.0,0.0,49,0.00,,,0.00,WUHU21623XXSP,2013-04-14 15:58:00,
2013-04-14 11:03:00,73.2,52.3,29.70,North,0,0.0,0.0,48,0.00,,,0.00,WUHU21623XXSP,2013-04-14 16:03:00,
2013-04-14 11:08:00,73.6,52.6,29.70,North,0,0.0,0.0,48,0.00,,,0.00,WUHU21623XXSP,2013-04-14 16:08:00,
2013-04-14 11:13:00,73.8,52.2,29.69,North,0,0.0,0.0,47,0.00,,,0.00,WUHU21623XXSP,2013-04-14 16:13:00,
2013-04-14 11:18:00,73.9,52.3,29.69,North,0,0.0,0.0,47,0.00,,,0.00,WUHU21623XXSP,2013-04-14 16:18:00,
2013-04-14 11:23:00,74.1,52.5,29.69,North,0,0.0,0.0,47,0.00,,,0.00,WUHU21623XXSP,2013-04-14 16:23:00,
2013-04-14 11:28:00,74.5,51.7,29.69,North,0,0.0,0.0,45,0.00,,,0.00,WUHU21623XXSP,2013-04-14 16:28:00,
2013-04-14 11:33:00,74.5,51.7,29.69,North,0,0.0,0.0,45,0.00,,,0.00,WUHU21623XXSP,2013-04-14 16:33:00,
2013-04-14 11:38:00,74.5,51.7,29.69,North,0,0.0,0.0,45,0.00,,,0.00,WUHU21623XXSP,2013-04-14 16:38:00,
2013-04-14 11:43:00,74.8,52.0,29.68,North,0,0.0,0.0,45,0.00,,,0.00,WUHU21623XXSP,2013-04-14 16:43:00,
2013-04-14 11:48:00,75.4,51.9,29.68,North,0,0.0,0.0,44,0.00,,,0.00,WUHU21623XXSP,2013-04-14 16:48:00,
2013-04-14 11:53:00,75.7,52.1,29.68,North,0,0.0,0.0,43,0.00,,,0.00,WUHU21623XXSP,2013-04-14 16:53:00,
2013-04-14 11:58:00,75.7,51.0,29.68,North,0,0.0,0.0,42,0.00,,,0.00,WUHU21623XXSP,2013-04-14 16:58:00,
2013-04-14 12:03:00,75.7,51.0,29.68,North,0,0.0,0.0,42,0.00,,,0.00,WUHU21623XXSP,2013-04-14 17:03:00,
2013-04-14 12:08:00,75.9,51.2,29.67,North,0,0.0,0.0,43,0.00,,,0.00,WUHU21623XXSP,2013-04-14 17:08:00,
2013-04-14 12:13:00,76.5,52.9,29.67,North,0,0.0,0.0,44,0.00,,,0.00,WUHU21623XXSP,2013-04-14 17:13:00,
2013-04-14 12:18:00,76.8,52.0,29.67,North,0,0.0,0.0,42,0.00,,,0.00,WUHU21623XXSP,2013-04-14 17:18:00,
2013-04-14 12:23:00,77.0,52.1,29.66,North,0,0.0,0.0,42,0.00,,,0.00,WUHU21623XXSP,2013-04-14 17:23:00,
2013-04-14 12:28:00,77.2,51.7,29.66,North,0,0.0,0.0,41,0.00,,,0.00,WUHU21623XXSP,2013-04-14 17:28:00,
2013-04-14 12:33:00,77.2,51.7,29.66,North,0,0.0,0.0,41,0.00,,,0.00,WUHU21623XXSP,2013-04-14 17:33:00,
2013-04-14 12:38:00,77.5,52.0,29.66,North,0,0.0,0.0,41,0.00,,,0.00,WUHU21623XXSP,2013-04-14 17:38:00,
2013-04-14 12:43:00,77.7,52.0,29.65,North,0,0.0,0.0,41,0.00,,,0.00,WUHU21623XXSP,2013-04-14 17:43:00,
2013-04-14 12:48:00,78.1,51.9,29.65,North,0,0.0,0.0,40,0.00,,,0.00,WUHU21623XXSP,2013-04-14 17:48:00,
2013-04-14 12:53:00,78.4,51.4,29.65,North,0,0.0,0.0,39,0.00,,,0.00,WUHU21623XXSP,2013-04-14 17:53:00,
2013-04-14 12:58:00,78.6,52.4,29.65,North,0,0.0,0.0,40,0.00,,,0.00,WUHU21623XXSP,2013-04-14 17:58:00,
2013-04-14 13:03:00,79.0,51.1,29.65,North,0,0.0,0.0,38,0.00,,,0.00,WUHU21623XXSP,2013-04-14 18:03:00,
2013-04-14 13:08:00,79.3,52.1,29.65,North,0,0.0,0.0,40,0.00,,,0.00,WUHU21623XXSP,2013-04-14 18:08:00,
2013-04-14 13:13:00,79.5,51.6,29.64,North,0,0.0,0.0,38,0.00,,,0.00,WUHU21623XXSP,2013-04-14 18:13:00,
2013-04-14 13:18:00,78.6,50.8,29.64,North,0,0.0,0.0,38,0.00,,,0.00,WUHU21623XXSP,2013-04-14 18:18:00,
2013-04-14 13:23:00,78.4,50.6,29.63,North,0,0.0,0.0,38,0.00,,,0.00,WUHU21623XXSP,2013-04-14 18:23:00,
2013-04-14 13:28:00,78.1,50.3,29.63,North,0,0.0,0.0,38,0.00,,,0.00,WUHU21623XXSP,2013-04-14 18:28:00,
2013-04-14 13:33:00,77.7,50.0,29.63,North,0,0.0,0.0,39,0.00,,,0.00,WUHU21623XXSP,2013-04-14 18:33:00,
2013-04-14 13:38:00,78.4,50.6,29.63,North,0,0.0,0.0,38,0.00,,,0.00,WUHU21623XXSP,2013-04-14 18:38:00,
2013-04-14 13:43:00,78.6,50.8,29.63,North,0,0.0,0.0,38,0.00,,,0.00,WUHU21623XXSP,2013-04-14 18:43:00,
2013-04-14 13:48:00,79.5,50.8,29.62,North,0,0.0,0.0,37,0.00,,,0.00,WUHU21623XXSP,2013-04-14 18:48:00,
2013-04-14 13:53:00,79.9,51.2,29.62,North,0,0.0,0.0,37,0.00,,,0.00,WUHU21623XXSP,2013-04-14 18:53:00,
2013-04-14 13:59:00,80.2,51.3,29.61,North,0,0.0,0.0,36,0.00,,,0.00,WUHU21623XXSP,2013-04-14 18:59:00,
2013-04-14 14:04:00,80.4,50.9,29.61,North,0,0.0,0.0,36,0.00,,,0.00,WUHU21623XXSP,2013-04-14 19:04:00,
2013-04-14 14:09:00,80.4,50.9,29.61,North,0,0.0,0.0,36,0.00,,,0.00,WUHU21623XXSP,2013-04-14 19:09:00,
2013-04-14 14:14:00,80.4,50.1,29.60,North,0,0.0,0.0,35,0.00,,,0.00,WUHU21623XXSP,2013-04-14 19:14:00,
2013-04-14 14:19:00,80.4,50.1,29.60,North,0,0.0,0.0,35,0.00,,,0.00,WUHU21623XXSP,2013-04-14 19:19:00,
2013-04-14 14:24:00,80.4,50.1,29.61,North,0,0.0,0.0,35,0.00,,,0.00,WUHU21623XXSP,2013-04-14 19:24:00,
2013-04-14 14:29:00,80.8,50.4,29.61,North,0,0.0,0.0,35,0.00,,,0.00,WUHU21623XXSP,2013-04-14 19:29:00,
2013-04-14 14:34:00,80.8,50.4,29.60,North,0,0.0,0.0,34,0.00,,,0.00,WUHU21623XXSP,2013-04-14 19:34:00,
2013-04-14 14:39:00,81.0,50.6,29.59,North,0,0.0,0.0,35,0.00,,,0.00,WUHU21623XXSP,2013-04-14 19:39:00,
2013-04-14 14:44:00,81.3,50.9,29.59,North,0,0.0,0.0,35,0.00,,,0.00,WUHU21623XXSP,2013-04-14 19:44:00,
2013-04-14 14:49:00,81.7,50.4,29.59,North,0,0.0,0.0,34,0.00,,,0.00,WUHU21623XXSP,2013-04-14 19:49:00,
2013-04-14 14:54:00,82.6,51.2,29.59,North,0,0.0,0.0,34,0.00,,,0.00,WUHU21623XXSP,2013-04-14 19:54:00,
2013-04-14 14:59:00,82.9,51.5,29.59,North,0,0.0,0.0,34,0.00,,,0.00,WUHU21623XXSP,2013-04-14 19:59:00,
2013-04-14 15:05:00,83.1,50.9,29.59,North,0,0.0,0.0,33,0.00,,,0.00,WUHU21623XXSP,2013-04-14 20:05:00,
2013-04-14 15:10:00,82.8,50.5,29.59,North,0,0.0,0.0,33,0.00,,,0.00,WUHU21623XXSP,2013-04-14 20:10:00,
2013-04-14 15:15:00,82.2,50.1,29.58,North,0,0.0,0.0,33,0.00,,,0.00,WUHU21623XXSP,2013-04-14 20:15:00,
2013-04-14 15:20:00,82.2,50.8,29.58,North,0,0.0,0.0,34,0.00,,,0.00,WUHU21623XXSP,2013-04-14 20:20:00,
2013-04-14 15:25:00,82.6,50.4,29.58,North,0,0.0,0.0,33,0.00,,,0.00,WUHU21623XXSP,2013-04-14 20:25:00,
2013-04-14 15:30:00,82.6,50.4,29.57,North,0,0.0,0.0,33,0.00,,,0.00,WUHU21623XXSP,2013-04-14 20:30:00,
2013-04-14 15:35:00,82.6,50.4,29.57,North,0,0.0,0.0,33,0.00,,,0.00,WUHU21623XXSP,2013-04-14 20:35:00,
2013-04-14 15:40:00,82.2,50.1,29.57,North,0,0.0,0.0,33,0.00,,,0.00,WUHU21623XXSP,2013-04-14 20:40:00,
2013-04-14 15:45:00,82.0,49.9,29.57,North,0,0.0,0.0,33,0.00,,,0.00,WUHU21623XXSP,2013-04-14 20:45:00,
2013-04-14 15:50:00,81.0,48.2,29.56,North,0,0.0,0.0,32,0.00,,,0.00,WUHU21623XXSP,2013-04-14 20:50:00,
2013-04-14 15:55:00,80.6,47.9,29.56,North,0,0.0,0.0,32,0.00,,,0.00,WUHU21623XXSP,2013-04-14 20:55:00,
2013-04-14 16:00:00,80.2,47.6,29.55,North,0,0.0,0.0,32,0.00,,,0.00,WUHU21623XXSP,2013-04-14 21:00:00,
2013-04-14 16:05:00,80.2,49.2,29.55,North,0,0.0,0.0,34,0.00,,,0.00,WUHU21623XXSP,2013-04-14 21:05:00,
2013-04-14 16:10:00,80.4,48.6,29.55,North,0,0.0,0.0,33,0.00,,,0.00,WUHU21623XXSP,2013-04-14 21:10:00,
2013-04-14 16:15:00,80.4,47.8,29.55,North,0,0.0,0.0,32,0.00,,,0.00,WUHU21623XXSP,2013-04-14 21:15:00,
2013-04-14 16:20:00,80.4,47.8,29.55,North,0,0.0,0.0,32,0.00,,,0.00,WUHU21623XXSP,2013-04-14 21:20:00,
2013-04-14 16:25:00,80.8,49.6,29.55,North,0,0.0,0.0,34,0.00,,,0.00,WUHU21623XXSP,2013-04-14 21:25:00,
2013-04-14 16:30:00,81.1,49.9,29.55,North,0,0.0,0.0,34,0.00,,,0.00,WUHU21623XXSP,2013-04-14 21:30:00,
2013-04-14 16:35:00,81.7,50.4,29.55,North,0,0.0,0.0,34,0.00,,,0.00,WUHU21623XXSP,2013-04-14 21:35:00,
2013-04-14 16:40:00,81.3,49.3,29.55,North,0,0.0,0.0,33,0.00,,,0.00,WUHU21623XXSP,2013-04-14 21:40:00,
2013-04-14 16:45:00,81.0,48.2,29.55,North,0,0.0,0.0,32,0.00,,,0.00,WUHU21623XXSP,2013-04-14 21:45:00,
2013-04-14 16:50:00,80.4,49.3,29.55,North,0,0.0,0.0,34,0.00,,,0.00,WUHU21623XXSP,2013-04-14 21:50:00,
2013-04-14 16:55:00,80.2,49.2,29.55,North,0,0.0,0.0,34,0.00,,,0.00,WUHU21623XXSP,2013-04-14 21:55:00,
2013-04-14 17:00:00,80.4,49.3,29.55,North,0,0.0,0.0,34,0.00,,,0.00,WUHU21623XXSP,2013-04-14 22:00:00,
2013-04-14 17:05:00,81.0,49.8,29.55,North,0,0.0,0.0,34,0.00,,,0.00,WUHU21623XXSP,2013-04-14 22:05:00,
2013-04-14 17:11:00,80.8,48.1,29.55,North,0,0.0,0.0,32,0.00,,,0.00,WUHU21623XXSP,2013-04-14 22:11:00,
2013-04-14 17:16:00,80.2,47.8,29.55,North,0,0.0,0.0,32,0.00,,,0.00,WUHU21623XXSP,2013-04-14 22:16:00,
2013-04-14 17:21:00,79.5,47.0,29.55,North,0,0.0,0.0,32,0.00,,,0.00,WUHU21623XXSP,2013-04-14 22:21:00,
2013-04-14 17:26:00,79.2,48.2,29.55,North,0,0.0,0.0,34,0.00,,,0.00,WUHU21623XXSP,2013-04-14 22:26:00,
2013-04-14 17:31:00,79.0,48.0,29.55,North,0,0.0,0.0,34,0.00,,,0.00,WUHU21623XXSP,2013-04-14 22:31:00,
2013-04-14 17:36:00,78.8,48.7,29.55,North,0,0.0,0.0,35,0.00,,,0.00,WUHU21623XXSP,2013-04-14 22:36:00,
2013-04-14 17:41:00,78.8,47.9,29.55,North,0,0.0,0.0,34,0.00,,,0.00,WUHU21623XXSP,2013-04-14 22:41:00,
2013-04-14 17:46:00,79.2,49.0,29.55,North,0,0.0,0.0,35,0.00,,,0.00,WUHU21623XXSP,2013-04-14 22:46:00,
2013-04-14 17:51:00,79.3,49.1,29.55,North,0,0.0,0.0,35,0.00,,,0.00,WUHU21623XXSP,2013-04-14 22:51:00,
2013-04-14 17:56:00,79.2,48.2,29.55,North,0,0.0,0.0,34,0.00,,,0.00,WUHU21623XXSP,2013-04-14 22:56:00,
2013-04-14 18:01:00,78.1,48.0,29.55,North,0,0.0,0.0,35,0.00,,,0.00,WUHU21623XXSP,2013-04-14 23:01:00,
2013-04-14 18:06:00,77.7,47.7,29.55,North,0,0.0,0.0,35,0.00,,,0.00,WUHU21623XXSP,2013-04-14 23:06:00,
2013-04-14 18:11:00,77.2,48.0,29.55,North,0,0.0,0.0,36,0.00,,,0.00,WUHU21623XXSP,2013-04-14 23:11:00,
2013-04-14 18:16:00,76.8,47.7,29.55,North,0,0.0,0.0,36,0.00,,,0.00,WUHU21623XXSP,2013-04-14 23:16:00,
2013-04-14 18:22:00,76.6,47.7,29.55,North,0,0.0,0.0,37,0.00,,,0.00,WUHU21623XXSP,2013-04-14 23:22:00,
2013-04-14 18:27:00,76.3,48.0,29.56,North,0,0.0,0.0,37,0.00,,,0.00,WUHU21623XXSP,2013-04-14 23:27:00,
2013-04-14 18:32:00,76.1,47.8,29.56,North,0,0.0,0.0,37,0.00,,,0.00,WUHU21623XXSP,2013-04-14 23:32:00,
2013-04-14 18:37:00,75.7,48.3,29.55,North,0,0.0,0.0,38,0.00,,,0.00,WUHU21623XXSP,2013-04-14 23:37:00,
2013-04-14 18:42:00,75.4,47.9,29.56,North,0,0.0,0.0,38,0.00,,,0.00,WUHU21623XXSP,2013-04-14 23:42:00,
2013-04-14 18:47:00,75.0,48.4,29.56,North,0,0.0,0.0,39,0.00,,,0.00,WUHU21623XXSP,2013-04-14 23:47:00,
2013-04-14 18:52:00,74.5,48.6,29.56,North,0,0.0,0.0,40,0.00,,,0.00,WUHU21623XXSP,2013-04-14 23:52:00,
2013-04-14 18:57:00,74.3,48.6,29.56,North,0,0.0,0.0,40,0.00,,,0.00,WUHU21623XXSP,2013-04-14 23:57:00,
2013-04-14 19:02:00,74.1,48.3,29.56,North,0,0.0,0.0,40,0.00,,,0.00,WUHU21623XXSP,2013-04-15 00:02:00,
2013-04-14 19:07:00,73.9,48.9,29.56,North,0,0.0,0.0,41,0.00,,,0.00,WUHU21623XXSP,2013-04-15 00:07:00,
2013-04-14 19:12:00,73.9,48.7,29.56,North,0,0.0,0.0,41,0.00,,,0.00,WUHU21623XXSP,2013-04-15 00:12:00,
2013-04-14 19:17:00,73.8,49.8,29.56,North,0,0.0,0.0,43,0.00,,,0.00,WUHU21623XXSP,2013-04-15 00:17:00,
2013-04-14 19:22:00,73.8,49.8,29.56,North,0,0.0,0.0,43,0.00,,,0.00,WUHU21623XXSP,2013-04-15 00:22:00,
2013-04-14 19:27:00,73.6,50.2,29.56,North,0,0.0,0.0,44,0.00,,,0.00,WUHU21623XXSP,2013-04-15 00:27:00,
2013-04-14 19:32:00,73.2,50.5,29.56,North,0,0.0,0.0,45,0.00,,,0.00,WUHU21623XXSP,2013-04-15 00:32:00,
2013-04-14 19:38:00,73.0,50.9,29.56,North,0,0.0,0.0,46,0.00,,,0.00,WUHU21623XXSP,2013-04-15 00:38:00,
2013-04-14 19:43:00,72.7,50.6,29.57,North,0,0.0,0.0,47,0.00,,,0.00,WUHU21623XXSP,2013-04-15 00:43:00,
2013-04-14 19:48:00,72.1,51.3,29.57,North,0,0.0,0.0,48,0.00,,,0.00,WUHU21623XXSP,2013-04-15 00:48:00,
2013-04-14 19:53:00,72.0,51.7,29.57,North,0,0.0,0.0,49,0.00,,,0.00,WUHU21623XXSP,2013-04-15 00:53:00,
2013-04-14 19:58:00,71.8,52.1,29.56,North,0,0.0,0.0,50,0.00,,,0.00,WUHU21623XXSP,2013-04-15 00:58:00,
2013-04-14 20:03:00,71.4,52.3,29.57,North,0,0.0,0.0,51,0.00,,,0.00,WUHU21623XXSP,2013-04-15 01:03:00,
2013-04-14 20:08:00,71.4,52.3,29.57,North,0,0.0,0.0,51,0.00,,,0.00,WUHU21623XXSP,2013-04-15 01:08:00,
2013-04-14 20:13:00,71.1,52.7,29.57,North,0,0.0,0.0,52,0.00,,,0.00,WUHU21623XXSP,2013-04-15 01:13:00,
2013-04-14 20:18:00,70.9,52.8,29.58,North,0,0.0,0.0,53,0.00,,,0.00,WUHU21623XXSP,2013-04-15 01:18:00,
2013-04-14 20:23:00,70.7,52.7,29.58,North,0,0.0,0.0,53,0.00,,,0.00,WUHU21623XXSP,2013-04-15 01:23:00,
2013-04-14 20:28:00,70.3,52.9,29.58,North,0,0.0,0.0,54,0.00,,,0.00,WUHU21623XXSP,2013-04-15 01:28:00,
2013-04-14 20:33:00,70.3,52.9,29.58,North,0,0.0,0.0,54,0.00,,,0.00,WUHU21623XXSP,2013-04-15 01:33:00,
2013-04-14 20:38:00,70.2,52.7,29.58,North,0,0.0,0.0,54,0.00,,,0.00,WUHU21623XXSP,2013-04-15 01:38:00,
2013-04-14 20:43:00,70.0,53.0,29.59,North,0,0.0,0.0,55,0.00,,,0.00,WUHU21623XXSP,2013-04-15 01:43:00,
2013-04-14 20:48:00,70.0,53.0,29.59,North,0,0.0,0.0,55,0.00,,,0.00,WUHU21623XXSP,2013-04-15 01:48:00,
2013-04-14 20:53:00,70.0,53.5,29.59,North,0,0.0,0.0,56,0.00,,,0.00,WUHU21623XXSP,2013-04-15 01:53:00,
2013-04-14 20:58:00,69.6,53.2,29.59,North,0,0.0,0.0,56,0.00,,,0.00,WUHU21623XXSP,2013-04-15 01:58:00,
2013-04-14 21:03:00,69.6,53.2,29.60,North,0,0.0,0.0,56,0.00,,,0.00,WUHU21623XXSP,2013-04-15 02:03:00,
2013-04-14 21:08:00,69.6,53.7,29.60,North,0,0.0,0.0,57,0.00,,,0.00,WUHU21623XXSP,2013-04-15 02:08:00,
2013-04-14 21:13:00,69.4,53.5,29.60,North,0,0.0,0.0,57,0.00,,,0.00,WUHU21623XXSP,2013-04-15 02:13:00,
2013-04-14 21:18:00,69.3,53.9,29.60,North,0,0.0,0.0,58,0.00,,,0.00,WUHU21623XXSP,2013-04-15 02:18:00,
2013-04-14 21:23:00,69.1,54.2,29.61,North,0,0.0,0.0,59,0.00,,,0.00,WUHU21623XXSP,2013-04-15 02:23:00,
2013-04-14 21:28:00,68.7,54.3,29.61,North,0,0.0,0.0,60,0.00,,,0.00,WUHU21623XXSP,2013-04-15 02:28:00,
2013-04-14 21:34:00,68.7,54.3,29.61,North,0,0.0,0.0,60,0.00,,,0.00,WUHU21623XXSP,2013-04-15 02:34:00,
2013-04-14 21:39:00,68.5,54.1,29.62,North,0,0.0,0.0,60,0.00,,,0.00,WUHU21623XXSP,2013-04-15 02:39:00,
2013-04-14 21:44:00,68.4,54.4,29.62,North,0,0.0,0.0,61,0.00,,,0.00,WUHU21623XXSP,2013-04-15 02:44:00,
2013-04-14 21:49:00,68.2,54.2,29.63,North,0,0.0,0.0,61,0.00,,,0.00,WUHU21623XXSP,2013-04-15 02:49:00,
2013-04-14 21:54:00,67.8,54.3,29.63,North,0,0.0,0.0,62,0.00,,,0.00,WUHU21623XXSP,2013-04-15 02:54:00,
2013-04-14 21:59:00,67.8,54.3,29.63,North,0,0.0,0.0,62,0.00,,,0.00,WUHU21623XXSP,2013-04-15 02:59:00,
2013-04-14 22:04:00,67.6,54.1,29.63,North,0,0.0,0.0,62,0.00,,,0.00,WUHU21623XXSP,2013-04-15 03:04:00,
2013-04-14 22:09:00,67.5,54.4,29.63,North,0,0.0,0.0,63,0.00,,,0.00,WUHU21623XXSP,2013-04-15 03:09:00,
2013-04-14 22:14:00,67.3,54.2,29.64,North,0,0.0,0.0,63,0.00,,,0.00,WUHU21623XXSP,2013-04-15 03:14:00,
2013-04-14 22:19:00,67.3,54.2,29.65,North,0,0.0,0.0,63,0.00,,,0.00,WUHU21623XXSP,2013-04-15 03:19:00,
2013-04-14 22:24:00,67.1,54.0,29.66,North,0,0.0,0.0,63,0.00,,,0.00,WUHU21623XXSP,2013-04-15 03:24:00,
2013-04-14 22:29:00,67.1,54.0,29.66,North,0,0.0,0.0,63,0.00,,,0.00,WUHU21623XXSP,2013-04-15 03:29:00,
2013-04-14 22:34:00,67.1,54.0,29.67,North,0,0.0,0.0,63,0.00,,,0.00,WUHU21623XXSP,2013-04-15 03:34:00,
2013-04-14 22:39:00,66.9,54.3,29.67,North,0,0.0,0.0,64,0.00,,,0.00,WUHU21623XXSP,2013-04-15 03:39:00,
2013-04-14 22:44:00,66.9,54.3,29.69,North,0,0.0,0.0,64,0.00,,,0.00,WUHU21623XXSP,2013-04-15 03:44:00,
2013-04-14 22:49:00,66.0,54.7,29.72,North,0,0.0,0.0,67,0.00,,,0.00,WUHU21623XXSP,2013-04-15 03:49:00,
2013-04-14 22:54:00,64.2,53.9,29.72,North,0,0.0,0.0,69,0.00,,,0.00,WUHU21623XXSP,2013-04-15 03:54:00,
2013-04-14 22:59:00,62.4,53.2,29.71,North,0,0.0,0.0,72,0.00,,,0.00,WUHU21623XXSP,2013-04-15 03:59:00,
2013-04-14 23:02:00,61.7,53.0,29.71,North,0,0.0,0.0,73,0.00,,,0.00,WUHU21623XXSP,2013-04-15 04:02:00,
2013-04-14 23:04:00,60.8,52.9,29.71,North,0,0.0,0.0,75,0.00,,,0.00,WUHU21623XXSP,2013-04-15 04:04:00,
2013-04-14 23:07:00,60.4,52.9,29.72,North,0,0.0,0.0,76,0.00,,,0.00,WUHU21623XXSP,2013-04-15 04:07:00,
2013-04-14 23:12:00,59.9,52.7,29.72,North,0,0.0,0.0,77,0.00,,,0.00,WUHU21623XXSP,2013-04-15 04:12:00,
2013-04-14 23:17:00,59.5,52.9,29.73,North,0,0.0,0.0,79,0.00,,,0.00,WUHU21623XXSP,2013-04-15 04:17:00,
2013-04-14 23:19:00,59.0,52.9,29.72,North,0,0.0,0.0,79,0.00,,,0.00,WUHU21623XXSP,2013-04-15 04:19:00,
2013-04-14 23:24:00,58.8,52.7,29.71,North,0,0.0,0.0,80,0.00,,,0.00,WUHU21623XXSP,2013-04-15 04:24:00,
2013-04-14 23:29:00,58.8,53.0,29.72,North,0,0.0,0.0,81,0.00,,,0.00,WUHU21623XXSP,2013-04-15 04:29:00,
2013-04-14 23:34:00,58.8,53.3,29.72,North,0,0.0,0.0,82,0.00,,,0.00,WUHU21623XXSP,2013-04-15 04:34:00,
2013-04-14 23:40:00,58.6,53.2,29.73,North,0,0.0,0.0,82,0.00,,,0.00,WUHU21623XXSP,2013-04-15 04:40:00,
2013-04-14 23:45:00,58.6,53.5,29.73,North,0,0.0,0.0,83,0.00,,,0.00,WUHU21623XXSP,2013-04-15 04:45:00,
2013-04-14 23:50:00,58.6,53.5,29.74,North,0,0.0,0.0,83,0.00,,,0.00,WUHU21623XXSP,2013-04-15 04:50:00,
2013-04-14 23:55:00,58.6,53.5,29.74,North,0,0.0,0.0,83,0.00,,,0.00,WUHU21623XXSP,2013-04-15 04:55:00,